,,,PA_Meas_PMT16A,,PR_Meas_QMR101_102,,RH_Meas_QMH101,,SR_Meas_QMS101,,TA_Meas_QMH101,,GenWind,,GenWind,
date,time,status,PA,status,PR,status,RH,status,SR,status,TA,status,DirAvg,status,SpdAvg,
2009-12-26, 00:00:04,VALID,999.034,VALID,0,VALID,93.1195,VALID,0,VALID,23.6214,VALID,35,VALID,0,
2009-12-26, 00:01:04,VALID,999.023,VALID,0,VALID,93.1882,VALID,0,VALID,23.6622,VALID,35,VALID,0,
2009-12-26, 00:02:04,VALID,999.001,VALID,0,VALID,93.2263,VALID,0,VALID,23.6622,VALID,35,VALID,0,
2009-12-26, 00:03:04,VALID,998.987,VALID,0,VALID,93.2492,VALID,0,VALID,23.6622,VALID,35,VALID,0,
2009-12-26, 00:04:04,VALID,998.951,VALID,0,VALID,93.2797,VALID,0,VALID,23.6409,VALID,35,VALID,0,
2009-12-26, 00:05:04,VALID,998.942,VALID,0,VALID,93.3026,VALID,0,VALID,23.6622,VALID,35,VALID,0,
2009-12-26, 00:06:04,VALID,998.926,VALID,0,VALID,93.2797,VALID,0,VALID,23.6019,VALID,36,VALID,0,
2009-12-26, 00:07:04,VALID,998.899,VALID,0,VALID,93.1348,VALID,0,VALID,23.5433,VALID,35,VALID,0,
2009-12-26, 00:08:04,VALID,998.902,VALID,0,VALID,93.2111,VALID,0,VALID,23.5238,VALID,35,VALID,0,
2009-12-26, 00:09:04,VALID,998.89,VALID,0,VALID,93.2416,VALID,0,VALID,23.5238,VALID,35,VALID,0,
2009-12-26, 00:10:04,VALID,998.864,VALID,0,VALID,93.2263,VALID,0,VALID,23.4848,VALID,35,VALID,0,
2009-12-26, 00:11:04,VALID,998.883,VALID,0,VALID,93.2645,VALID,0,VALID,23.4866,VALID,35,VALID,0,
2009-12-26, 00:12:04,VALID,998.841,VALID,0,VALID,93.3255,VALID,0,VALID,23.5043,VALID,35,VALID,0,
2009-12-26, 00:13:04,VALID,998.852,VALID,0,VALID,93.4018,VALID,0,VALID,23.5256,VALID,35,VALID,0,
2009-12-26, 00:14:04,VALID,998.869,VALID,0,VALID,93.4705,VALID,0,VALID,23.5646,VALID,35,VALID,0,
2009-12-26, 00:15:04,VALID,998.856,VALID,0,VALID,93.5163,VALID,0,VALID,23.5628,VALID,35,VALID,0,
2009-12-26, 00:16:04,VALID,998.838,VALID,0,VALID,93.5315,VALID,0,VALID,23.5841,VALID,35,VALID,0,
2009-12-26, 00:17:04,VALID,998.843,VALID,0,VALID,93.5697,VALID,0,VALID,23.6036,VALID,35,VALID,0,
2009-12-26, 00:18:04,VALID,998.819,VALID,0,VALID,93.5239,VALID,0,VALID,23.5433,VALID,35,VALID,0,
2009-12-26, 00:19:04,VALID,998.8,VALID,0,VALID,93.5468,VALID,0,VALID,23.5628,VALID,35,VALID,0,
2009-12-26, 00:20:04,VALID,998.777,VALID,0,VALID,93.5697,VALID,0,VALID,23.6036,VALID,35,VALID,0,
2009-12-26, 00:21:04,VALID,998.758,VALID,0,VALID,93.5697,VALID,0,VALID,23.5628,VALID,35,VALID,0,
2009-12-26, 00:22:04,VALID,998.711,VALID,0,VALID,93.5697,VALID,0,VALID,23.5628,VALID,35,VALID,0,
2009-12-26, 00:23:04,VALID,998.76,VALID,0,VALID,93.5315,VALID,0,VALID,23.5238,VALID,35,VALID,0,
2009-12-26, 00:24:04,VALID,998.693,VALID,0,VALID,93.5468,VALID,0,VALID,23.5256,VALID,35,VALID,0,
2009-12-26, 00:25:04,VALID,998.693,VALID,0,VALID,93.5315,VALID,0,VALID,23.5061,VALID,36,VALID,0,
2009-12-26, 00:26:04,VALID,998.71,VALID,0,VALID,93.5391,VALID,0,VALID,23.5061,VALID,35,VALID,0,
2009-12-26, 00:27:04,VALID,998.697,VALID,0,VALID,93.5773,VALID,0,VALID,23.4866,VALID,36,VALID,0,
2009-12-26, 00:28:04,VALID,998.711,VALID,0,VALID,93.6078,VALID,0,VALID,23.5256,VALID,35,VALID,0,
2009-12-26, 00:29:04,VALID,998.706,VALID,0,VALID,93.6307,VALID,0,VALID,23.5646,VALID,35,VALID,0,
2009-12-26, 00:30:04,VALID,998.704,VALID,0,VALID,93.6078,VALID,0,VALID,23.5451,VALID,35,VALID,0,
2009-12-26, 00:31:04,VALID,998.688,VALID,0,VALID,93.5773,VALID,0,VALID,23.4848,VALID,35,VALID,0,
2009-12-26, 00:32:04,VALID,998.708,VALID,0,VALID,93.5926,VALID,0,VALID,23.4653,VALID,35,VALID,0,
2009-12-26, 00:33:04,VALID,998.7,VALID,0,VALID,93.6307,VALID,0.112286,VALID,23.5061,VALID,35,VALID,0,
2009-12-26, 00:34:04,VALID,998.68,VALID,0,VALID,93.6231,VALID,0,VALID,23.4848,VALID,36,VALID,0,
2009-12-26, 00:35:04,VALID,998.706,VALID,0,VALID,93.5391,VALID,0,VALID,23.4458,VALID,36,VALID,0,
2009-12-26, 00:36:04,VALID,998.706,VALID,0,VALID,93.5544,VALID,0,VALID,23.4263,VALID,36,VALID,0,
2009-12-26, 00:37:04,VALID,998.729,VALID,0,VALID,93.4018,VALID,0,VALID,23.3695,VALID,36,VALID,0,
2009-12-26, 00:38:04,VALID,998.718,VALID,0,VALID,93.4781,VALID,0,VALID,23.3092,VALID,36,VALID,0,
2009-12-26, 00:39:04,VALID,998.705,VALID,0,VALID,93.4628,VALID,0,VALID,23.2507,VALID,36,VALID,0,
2009-12-26, 00:40:04,VALID,998.686,VALID,0,VALID,93.5391,VALID,0,VALID,23.2507,VALID,36,VALID,0,
2009-12-26, 00:41:04,VALID,998.666,VALID,0,VALID,93.5773,VALID,0,VALID,23.2507,VALID,36,VALID,0,
2009-12-26, 00:42:04,VALID,998.659,VALID,0,VALID,93.5544,VALID,0,VALID,23.2524,VALID,36,VALID,0,
2009-12-26, 00:43:04,VALID,998.625,VALID,0,VALID,93.5315,VALID,0,VALID,23.1921,VALID,36,VALID,0,
2009-12-26, 00:44:04,VALID,998.6,VALID,0,VALID,93.5315,VALID,0,VALID,23.1531,VALID,36,VALID,0,
2009-12-26, 00:45:04,VALID,998.584,VALID,0,VALID,93.5391,VALID,0.112286,VALID,23.1336,VALID,36,VALID,0,
2009-12-26, 00:46:04,VALID,998.539,VALID,0,VALID,93.5086,VALID,0,VALID,23.0946,VALID,36,VALID,0,
2009-12-26, 00:47:04,VALID,998.51,VALID,0,VALID,93.5163,VALID,0,VALID,23.0751,VALID,36,VALID,0,
2009-12-26, 00:48:04,VALID,998.499,VALID,0,VALID,93.5391,VALID,0,VALID,23.0556,VALID,36,VALID,0,
2009-12-26, 00:49:04,VALID,998.508,VALID,0,VALID,93.6383,VALID,0,VALID,23.0946,VALID,36,VALID,0,
2009-12-26, 00:50:04,VALID,998.489,VALID,0,VALID,93.707,VALID,0,VALID,23.1141,VALID,36,VALID,0,
2009-12-26, 00:51:04,VALID,998.487,VALID,0,VALID,93.7223,VALID,0,VALID,23.1531,VALID,36,VALID,0,
2009-12-26, 00:52:04,VALID,998.514,VALID,0,VALID,93.8214,VALID,0,VALID,23.2329,VALID,36,VALID,0,
2009-12-26, 00:53:04,VALID,998.507,VALID,0,VALID,93.8367,VALID,0,VALID,23.2507,VALID,36,VALID,0,
2009-12-26, 00:54:04,VALID,998.526,VALID,0,VALID,93.8291,VALID,0,VALID,23.2702,VALID,36,VALID,0,
2009-12-26, 00:55:04,VALID,998.547,VALID,0,VALID,93.7833,VALID,0,VALID,23.2117,VALID,36,VALID,0,
2009-12-26, 00:56:04,VALID,998.493,VALID,0,VALID,93.768,VALID,0.112286,VALID,23.1939,VALID,36,VALID,0,
2009-12-26, 00:57:04,VALID,998.504,VALID,0,VALID,93.7375,VALID,0,VALID,23.1744,VALID,36,VALID,0,
2009-12-26, 00:58:04,VALID,998.458,VALID,0,VALID,93.7451,VALID,0,VALID,23.1744,VALID,36,VALID,0,
2009-12-26, 00:59:04,VALID,998.462,VALID,0,VALID,93.768,VALID,0,VALID,23.1531,VALID,36,VALID,0,
2009-12-26, 01:00:04,VALID,998.418,VALID,0,VALID,93.8062,VALID,0,VALID,23.1726,VALID,36,VALID,0,
2009-12-26, 01:01:04,VALID,998.43,VALID,0,VALID,93.7451,VALID,0,VALID,23.1549,VALID,36,VALID,0,
2009-12-26, 01:02:04,VALID,998.395,VALID,0,VALID,93.7604,VALID,0,VALID,23.1549,VALID,36,VALID,0,
2009-12-26, 01:03:04,VALID,998.378,VALID,0,VALID,93.8367,VALID,0,VALID,23.1336,VALID,36,VALID,0,
2009-12-26, 01:04:04,VALID,998.393,VALID,0,VALID,93.8748,VALID,0,VALID,23.1531,VALID,36,VALID,0,
2009-12-26, 01:05:04,VALID,998.366,VALID,0,VALID,93.8138,VALID,0.112286,VALID,23.1726,VALID,36,VALID,0,
2009-12-26, 01:06:04,VALID,998.376,VALID,0,VALID,93.7985,VALID,0,VALID,23.1549,VALID,41,VALID,0,
2009-12-26, 01:07:04,VALID,998.342,VALID,0,VALID,93.8214,VALID,0,VALID,23.1354,VALID,41,VALID,0,
2009-12-26, 01:08:04,VALID,998.326,VALID,0,VALID,93.9054,VALID,0,VALID,23.1336,VALID,44,VALID,0,
2009-12-26, 01:09:04,VALID,998.359,VALID,0,VALID,93.9054,VALID,0,VALID,23.1549,VALID,46,VALID,0,
2009-12-26, 01:10:04,VALID,998.319,VALID,0,VALID,93.9588,VALID,0,VALID,23.1921,VALID,52,VALID,0,
2009-12-26, 01:11:04,VALID,998.282,VALID,0,VALID,93.9054,VALID,0,VALID,23.2134,VALID,53,VALID,0,
2009-12-26, 01:12:04,VALID,998.28,VALID,0,VALID,93.8748,VALID,0,VALID,23.1744,VALID,59,VALID,0,
2009-12-26, 01:13:04,VALID,998.295,VALID,0,VALID,93.8214,VALID,0,VALID,23.1141,VALID,63,VALID,0,
2009-12-26, 01:14:04,VALID,998.286,VALID,0,VALID,93.8214,VALID,0,VALID,23.0769,VALID,64,VALID,0,
2009-12-26, 01:15:04,VALID,998.258,VALID,0,VALID,93.8214,VALID,0,VALID,23.0166,VALID,64,VALID,0,
2009-12-26, 01:16:04,VALID,998.275,VALID,0,VALID,93.8138,VALID,0,VALID,23.0378,VALID,64,VALID,0,
2009-12-26, 01:17:04,VALID,998.294,VALID,0,VALID,93.8214,VALID,0,VALID,22.9971,VALID,64,VALID,0,
2009-12-26, 01:18:04,VALID,998.334,VALID,0,VALID,93.8214,VALID,0,VALID,22.9988,VALID,64,VALID,0,
2009-12-26, 01:19:04,VALID,998.315,VALID,0,VALID,93.8138,VALID,0,VALID,22.9598,VALID,64,VALID,0,
2009-12-26, 01:20:04,VALID,998.294,VALID,0,VALID,93.8138,VALID,0,VALID,22.919,VALID,64,VALID,0,
2009-12-26, 01:21:04,VALID,998.311,VALID,0,VALID,93.7985,VALID,0,VALID,22.8995,VALID,63,VALID,0,
2009-12-26, 01:22:04,VALID,998.311,VALID,0,VALID,93.7909,VALID,0,VALID,22.9013,VALID,63,VALID,0,
2009-12-26, 01:23:04,VALID,998.332,VALID,0,VALID,93.7985,VALID,0,VALID,22.8818,VALID,63,VALID,0,
2009-12-26, 01:24:04,VALID,998.343,VALID,0,VALID,93.7985,VALID,0,VALID,22.8818,VALID,60,VALID,0,
2009-12-26, 01:25:04,VALID,998.326,VALID,0,VALID,93.8138,VALID,0,VALID,22.841,VALID,38,VALID,0,
2009-12-26, 01:26:04,VALID,998.343,VALID,0,VALID,93.8443,VALID,0,VALID,22.8623,VALID,33,VALID,0,
2009-12-26, 01:27:04,VALID,998.388,VALID,0,VALID,93.8062,VALID,0,VALID,22.8215,VALID,31,VALID,0,
2009-12-26, 01:28:04,VALID,998.393,VALID,0,VALID,93.7985,VALID,0,VALID,22.8037,VALID,31,VALID,0,
2009-12-26, 01:29:04,VALID,998.377,VALID,0,VALID,93.8748,VALID,0,VALID,22.7825,VALID,31,VALID,0,
2009-12-26, 01:30:04,VALID,998.422,VALID,0,VALID,93.8596,VALID,0,VALID,22.8232,VALID,30,VALID,0,
2009-12-26, 01:31:04,VALID,998.402,VALID,0,VALID,93.8672,VALID,0,VALID,22.8037,VALID,30,VALID,0,
2009-12-26, 01:32:04,VALID,998.444,VALID,0,VALID,93.9054,VALID,0,VALID,22.8232,VALID,30,VALID,0,
2009-12-26, 01:33:04,VALID,998.433,VALID,0,VALID,93.8901,VALID,0,VALID,22.8037,VALID,30,VALID,0,
2009-12-26, 01:34:04,VALID,998.432,VALID,0,VALID,93.8748,VALID,0,VALID,22.8037,VALID,30,VALID,0,
2009-12-26, 01:35:04,VALID,998.436,VALID,0,VALID,93.9054,VALID,0,VALID,22.8037,VALID,30,VALID,0,
2009-12-26, 01:36:04,VALID,998.421,VALID,0,VALID,93.9283,VALID,0,VALID,22.8232,VALID,30,VALID,0,
2009-12-26, 01:37:04,VALID,998.429,VALID,0,VALID,93.9435,VALID,0,VALID,22.8818,VALID,30,VALID,0,
2009-12-26, 01:38:04,VALID,998.375,VALID,0,VALID,93.9664,VALID,0,VALID,22.9013,VALID,30,VALID,0,
2009-12-26, 01:39:04,VALID,998.34,VALID,0,VALID,93.9893,VALID,0,VALID,22.9598,VALID,30,VALID,0,
2009-12-26, 01:40:04,VALID,998.298,VALID,0,VALID,94.0122,VALID,0,VALID,22.9793,VALID,30,VALID,0,
2009-12-26, 01:41:04,VALID,998.274,VALID,0,VALID,93.9969,VALID,0,VALID,22.9988,VALID,30,VALID,0,
2009-12-26, 01:42:04,VALID,998.214,VALID,0,VALID,94.0122,VALID,0,VALID,23.0183,VALID,30,VALID,0,
2009-12-26, 01:43:04,VALID,998.21,VALID,0,VALID,93.9588,VALID,0,VALID,22.9988,VALID,30,VALID,0,
2009-12-26, 01:44:04,VALID,998.237,VALID,0,VALID,93.9893,VALID,0,VALID,23.0183,VALID,30,VALID,0,
2009-12-26, 01:45:04,VALID,998.209,VALID,0,VALID,93.9817,VALID,0,VALID,22.9971,VALID,30,VALID,0,
2009-12-26, 01:46:04,VALID,998.203,VALID,0,VALID,93.9969,VALID,0,VALID,22.9581,VALID,30,VALID,0,
2009-12-26, 01:47:04,VALID,998.197,VALID,0,VALID,93.9664,VALID,0,VALID,22.9581,VALID,30,VALID,0,
2009-12-26, 01:48:04,VALID,998.229,VALID,0,VALID,93.9969,VALID,0,VALID,22.9971,VALID,30,VALID,0,
2009-12-26, 01:49:04,VALID,998.225,VALID,0,VALID,94.0274,VALID,0,VALID,23.0378,VALID,351,VALID,0,
2009-12-26, 01:50:04,VALID,998.191,VALID,0,VALID,94.0122,VALID,0,VALID,23.0573,VALID,349,VALID,0,
2009-12-26, 01:51:04,VALID,998.194,VALID,0,VALID,94.0122,VALID,0,VALID,23.0573,VALID,349,VALID,0,
2009-12-26, 01:52:04,VALID,998.196,VALID,0,VALID,94.0427,VALID,0,VALID,23.0769,VALID,349,VALID,0,
2009-12-26, 01:53:04,VALID,998.171,VALID,0,VALID,94.0503,VALID,0,VALID,23.0769,VALID,349,VALID,0,
2009-12-26, 01:54:04,VALID,998.137,VALID,0,VALID,94.0503,VALID,0,VALID,23.0769,VALID,349,VALID,0,
2009-12-26, 01:55:04,VALID,998.142,VALID,0,VALID,93.9969,VALID,0,VALID,23.0166,VALID,349,VALID,0,
2009-12-26, 01:56:04,VALID,998.135,VALID,0,VALID,93.9969,VALID,0,VALID,23.0183,VALID,349,VALID,0,
2009-12-26, 01:57:04,VALID,998.13,VALID,0,VALID,93.9511,VALID,0,VALID,22.9598,VALID,349,VALID,0,
2009-12-26, 01:58:04,VALID,998.123,VALID,0,VALID,94.058,VALID,0,VALID,22.9598,VALID,349,VALID,0,
2009-12-26, 01:59:04,VALID,998.148,VALID,0,VALID,94.0656,VALID,0,VALID,22.9793,VALID,349,VALID,0,
2009-12-26, 02:00:04,VALID,998.126,VALID,0,VALID,94.0961,VALID,0,VALID,23.0183,VALID,349,VALID,0,
2009-12-26, 02:01:04,VALID,998.123,VALID,0,VALID,94.0427,VALID,0,VALID,23.0378,VALID,349,VALID,0,
2009-12-26, 02:02:04,VALID,998.122,VALID,0,VALID,94.0656,VALID,0,VALID,23.0183,VALID,349,VALID,0,
2009-12-26, 02:03:04,VALID,998.092,VALID,0,VALID,94.0427,VALID,0,VALID,22.9988,VALID,349,VALID,0,
2009-12-26, 02:04:04,VALID,998.094,VALID,0,VALID,94.0503,VALID,0,VALID,22.9793,VALID,349,VALID,0,
2009-12-26, 02:05:04,VALID,998.118,VALID,0,VALID,94.0427,VALID,0,VALID,22.9598,VALID,349,VALID,0,
2009-12-26, 02:06:04,VALID,998.058,VALID,0,VALID,94.0427,VALID,0,VALID,22.9385,VALID,349,VALID,0,
2009-12-26, 02:07:04,VALID,998.073,VALID,0,VALID,94.0808,VALID,0,VALID,22.9403,VALID,349,VALID,0,
2009-12-26, 02:08:04,VALID,998.048,VALID,0,VALID,94.1266,VALID,0,VALID,22.9581,VALID,349,VALID,0,
2009-12-26, 02:09:04,VALID,998.011,VALID,0,VALID,94.119,VALID,0,VALID,23.0183,VALID,349,VALID,0,
2009-12-26, 02:10:04,VALID,997.996,VALID,0,VALID,94.0656,VALID,0,VALID,23.0183,VALID,349,VALID,0,
2009-12-26, 02:11:04,VALID,997.97,VALID,0,VALID,94.0808,VALID,0,VALID,22.9971,VALID,349,VALID,0,
2009-12-26, 02:12:04,VALID,997.997,VALID,0,VALID,94.1037,VALID,0,VALID,23.0378,VALID,349,VALID,0,
2009-12-26, 02:13:04,VALID,997.986,VALID,0,VALID,94.1037,VALID,0,VALID,23.0573,VALID,79,VALID,0,
2009-12-26, 02:14:04,VALID,998.021,VALID,0,VALID,94.1419,VALID,0,VALID,23.0556,VALID,79,VALID,0,
2009-12-26, 02:15:04,VALID,997.994,VALID,0,VALID,94.1343,VALID,0,VALID,23.0964,VALID,79,VALID,0,
2009-12-26, 02:16:04,VALID,998.046,VALID,0,VALID,94.119,VALID,0,VALID,23.0769,VALID,79,VALID,0,
2009-12-26, 02:17:04,VALID,998.032,VALID,0,VALID,94.0961,VALID,0,VALID,23.0361,VALID,79,VALID,0,
2009-12-26, 02:18:04,VALID,998.048,VALID,0,VALID,94.0198,VALID,0,VALID,23.0183,VALID,79,VALID,0,
2009-12-26, 02:19:04,VALID,998.06,VALID,0,VALID,94.0274,VALID,0,VALID,22.9598,VALID,79,VALID,0,
2009-12-26, 02:20:04,VALID,998.066,VALID,0,VALID,93.9969,VALID,0,VALID,22.8818,VALID,79,VALID,0,
2009-12-26, 02:21:04,VALID,998.069,VALID,0,VALID,94.0198,VALID,0,VALID,22.8232,VALID,79,VALID,0,
2009-12-26, 02:22:04,VALID,998.091,VALID,0,VALID,94.0198,VALID,0,VALID,22.8037,VALID,79,VALID,0,
2009-12-26, 02:23:04,VALID,998.076,VALID,0,VALID,94.0503,VALID,0,VALID,22.8037,VALID,74,VALID,0,
2009-12-26, 02:24:04,VALID,998.068,VALID,0,VALID,94.0961,VALID,0,VALID,22.8232,VALID,7,VALID,0.449609,
2009-12-26, 02:25:04,VALID,998.072,VALID,0,VALID,94.1037,VALID,0,VALID,22.8623,VALID,7,VALID,0.385938,
2009-12-26, 02:26:04,VALID,998.053,VALID,0,VALID,94.0732,VALID,0,VALID,22.8427,VALID,7,VALID,0.371875,
2009-12-26, 02:27:04,VALID,998.048,VALID,0,VALID,94.0808,VALID,0,VALID,22.8215,VALID,7,VALID,0.390625,
2009-12-26, 02:28:04,VALID,998.041,VALID,0,VALID,94.0885,VALID,0,VALID,22.864,VALID,7,VALID,0.354297,
2009-12-26, 02:29:04,VALID,998.052,VALID,0,VALID,94.0732,VALID,0,VALID,22.825,VALID,7,VALID,0.495703,
2009-12-26, 02:30:04,VALID,998.067,VALID,0,VALID,94.0351,VALID,0,VALID,22.786,VALID,7,VALID,0.564062,
2009-12-26, 02:31:04,VALID,998.08,VALID,0,VALID,94.0274,VALID,0,VALID,22.7452,VALID,12,VALID,0.721484,
2009-12-26, 02:32:04,VALID,998.064,VALID,0,VALID,94.0808,VALID,0,VALID,22.7257,VALID,17,VALID,0.790625,
2009-12-26, 02:33:04,VALID,998.077,VALID,0,VALID,94.0427,VALID,0,VALID,22.7274,VALID,17,VALID,0.674609,
2009-12-26, 02:34:04,VALID,998.075,VALID,0,VALID,94.0656,VALID,0,VALID,22.7062,VALID,17,VALID,0.691016,
2009-12-26, 02:35:04,VALID,998.09,VALID,0,VALID,94.0885,VALID,0,VALID,22.7079,VALID,17,VALID,0.601172,
2009-12-26, 02:36:04,VALID,998.08,VALID,0,VALID,94.1266,VALID,0,VALID,22.7274,VALID,17,VALID,0.383984,
2009-12-26, 02:37:04,VALID,998.083,VALID,0,VALID,94.1114,VALID,0,VALID,22.7062,VALID,17,VALID,0.226953,
2009-12-26, 02:38:04,VALID,998.095,VALID,0,VALID,94.1114,VALID,0,VALID,22.7079,VALID,17,VALID,0.166797,
2009-12-26, 02:39:04,VALID,998.087,VALID,0,VALID,94.119,VALID,0,VALID,22.7452,VALID,17,VALID,0,
2009-12-26, 02:40:04,VALID,998.087,VALID,0,VALID,94.1037,VALID,0,VALID,22.7257,VALID,17,VALID,0,
2009-12-26, 02:41:04,VALID,998.083,VALID,0,VALID,94.1266,VALID,0,VALID,22.7664,VALID,17,VALID,0,
2009-12-26, 02:42:04,VALID,998.045,VALID,0,VALID,94.1571,VALID,0,VALID,22.7842,VALID,17,VALID,0,
2009-12-26, 02:43:04,VALID,998.071,VALID,0,VALID,94.1419,VALID,0,VALID,22.8232,VALID,17,VALID,0.121875,
2009-12-26, 02:44:04,VALID,998.055,VALID,0,VALID,94.1953,VALID,0,VALID,22.841,VALID,17,VALID,0.400391,
2009-12-26, 02:45:04,VALID,998.055,VALID,0,VALID,94.1953,VALID,0,VALID,22.9403,VALID,17,VALID,0.380078,
2009-12-26, 02:46:04,VALID,998.054,VALID,0,VALID,94.1877,VALID,0,VALID,22.9581,VALID,21,VALID,0.431641,
2009-12-26, 02:47:04,VALID,998.072,VALID,0,VALID,94.1724,VALID,0,VALID,22.9793,VALID,60,VALID,0.641797,
2009-12-26, 02:48:04,VALID,998.057,VALID,0,VALID,94.1571,VALID,0,VALID,22.9598,VALID,60,VALID,0.614062,
2009-12-26, 02:49:04,VALID,998.09,VALID,0,VALID,94.1114,VALID,0,VALID,22.9385,VALID,60,VALID,0.545703,
2009-12-26, 02:50:04,VALID,998.108,VALID,0,VALID,94.1266,VALID,0.112286,VALID,22.8995,VALID,60,VALID,0.322266,
2009-12-26, 02:51:04,VALID,998.108,VALID,0,VALID,94.1266,VALID,0,VALID,22.88,VALID,60,VALID,0,
2009-12-26, 02:52:04,VALID,998.129,VALID,0,VALID,94.0961,VALID,0.112286,VALID,22.8605,VALID,60,VALID,0,
2009-12-26, 02:53:04,VALID,998.124,VALID,0,VALID,94.1037,VALID,0.112286,VALID,22.841,VALID,60,VALID,0,
2009-12-26, 02:54:04,VALID,998.123,VALID,0,VALID,94.119,VALID,0.112286,VALID,22.8215,VALID,60,VALID,0,
2009-12-26, 02:55:04,VALID,998.152,VALID,0,VALID,94.1571,VALID,0,VALID,22.88,VALID,60,VALID,0,
2009-12-26, 02:56:04,VALID,998.113,VALID,0,VALID,94.1571,VALID,0,VALID,22.88,VALID,60,VALID,0,
2009-12-26, 02:57:04,VALID,998.09,VALID,0,VALID,94.1419,VALID,0,VALID,22.8995,VALID,60,VALID,0,
2009-12-26, 02:58:04,VALID,998.095,VALID,0,VALID,94.1343,VALID,0,VALID,22.903,VALID,60,VALID,0,
2009-12-26, 02:59:04,VALID,998.083,VALID,0,VALID,94.119,VALID,0,VALID,22.8623,VALID,60,VALID,0,
2009-12-26, 03:00:04,VALID,998.065,VALID,0,VALID,94.1266,VALID,0,VALID,22.8623,VALID,60,VALID,0,
2009-12-26, 03:01:04,VALID,998.053,VALID,0,VALID,94.1114,VALID,0,VALID,22.8232,VALID,60,VALID,0,
2009-12-26, 03:02:04,VALID,998.036,VALID,0,VALID,94.1343,VALID,0,VALID,22.8232,VALID,60,VALID,0,
2009-12-26, 03:03:04,VALID,998.043,VALID,0,VALID,94.1571,VALID,0,VALID,22.8623,VALID,60,VALID,0,
2009-12-26, 03:04:04,VALID,998.027,VALID,0,VALID,94.1266,VALID,0,VALID,22.8232,VALID,60,VALID,0,
2009-12-26, 03:05:04,VALID,998.028,VALID,0,VALID,94.1648,VALID,0,VALID,22.8232,VALID,60,VALID,0,
2009-12-26, 03:06:04,VALID,998.041,VALID,0,VALID,94.1648,VALID,0,VALID,22.864,VALID,60,VALID,0,
2009-12-26, 03:07:04,VALID,998.046,VALID,0,VALID,94.1495,VALID,0,VALID,22.8427,VALID,60,VALID,0,
2009-12-26, 03:08:04,VALID,998.058,VALID,0,VALID,94.1419,VALID,0,VALID,22.8232,VALID,60,VALID,0,
2009-12-26, 03:09:04,VALID,998.064,VALID,0,VALID,94.1266,VALID,0,VALID,22.8427,VALID,60,VALID,0,
2009-12-26, 03:10:04,VALID,998.091,VALID,0,VALID,94.1343,VALID,0,VALID,22.864,VALID,60,VALID,0,
2009-12-26, 03:11:04,VALID,998.11,VALID,0,VALID,94.1571,VALID,0,VALID,22.8623,VALID,60,VALID,0,
2009-12-26, 03:12:04,VALID,998.121,VALID,0,VALID,94.1419,VALID,0,VALID,22.8818,VALID,60,VALID,0,
2009-12-26, 03:13:04,VALID,998.12,VALID,0,VALID,94.1571,VALID,0,VALID,22.9208,VALID,60,VALID,0,
2009-12-26, 03:14:04,VALID,998.126,VALID,0,VALID,94.1495,VALID,0,VALID,22.9403,VALID,60,VALID,0,
2009-12-26, 03:15:04,VALID,998.177,VALID,0,VALID,94.1266,VALID,0,VALID,22.9403,VALID,60,VALID,0,
2009-12-26, 03:16:04,VALID,998.146,VALID,0,VALID,94.1419,VALID,0,VALID,22.9403,VALID,60,VALID,0,
2009-12-26, 03:17:04,VALID,998.153,VALID,0,VALID,94.119,VALID,0,VALID,22.9403,VALID,60,VALID,0,
2009-12-26, 03:18:04,VALID,998.183,VALID,0,VALID,94.1037,VALID,0,VALID,22.9013,VALID,60,VALID,0,
2009-12-26, 03:19:04,VALID,998.189,VALID,0,VALID,94.1343,VALID,0,VALID,22.903,VALID,60,VALID,0,
2009-12-26, 03:20:04,VALID,998.173,VALID,0,VALID,94.119,VALID,0,VALID,22.8427,VALID,66,VALID,0,
2009-12-26, 03:21:04,VALID,998.141,VALID,0,VALID,94.1877,VALID,0,VALID,22.8818,VALID,100,VALID,0,
2009-12-26, 03:22:04,VALID,998.155,VALID,0,VALID,94.1571,VALID,0,VALID,22.8818,VALID,111,VALID,0,
2009-12-26, 03:23:04,VALID,998.137,VALID,0,VALID,94.1571,VALID,0,VALID,22.8427,VALID,111,VALID,0.504297,
2009-12-26, 03:24:04,VALID,998.158,VALID,0,VALID,94.1343,VALID,0,VALID,22.8232,VALID,110,VALID,0.535547,
2009-12-26, 03:25:04,VALID,998.19,VALID,0,VALID,94.1648,VALID,0,VALID,22.8445,VALID,110,VALID,0.571094,
2009-12-26, 03:26:04,VALID,998.18,VALID,0,VALID,94.1648,VALID,0,VALID,22.8427,VALID,108,VALID,0.460547,
2009-12-26, 03:27:04,VALID,998.179,VALID,0,VALID,94.1953,VALID,0,VALID,22.8427,VALID,108,VALID,0.354688,
2009-12-26, 03:28:04,VALID,998.191,VALID,0,VALID,94.1877,VALID,0,VALID,22.9013,VALID,108,VALID,0.135937,
2009-12-26, 03:29:04,VALID,998.187,VALID,0,VALID,94.1648,VALID,0,VALID,22.88,VALID,108,VALID,0,
2009-12-26, 03:30:04,VALID,998.139,VALID,0,VALID,94.1343,VALID,0,VALID,22.9013,VALID,108,VALID,0,
2009-12-26, 03:31:04,VALID,998.153,VALID,0,VALID,94.1419,VALID,0,VALID,22.8623,VALID,108,VALID,0,
2009-12-26, 03:32:04,VALID,998.14,VALID,0,VALID,94.1343,VALID,0,VALID,22.8623,VALID,108,VALID,0,
2009-12-26, 03:33:04,VALID,998.157,VALID,0,VALID,94.1419,VALID,0,VALID,22.8818,VALID,108,VALID,0.00234375,
2009-12-26, 03:34:04,VALID,998.176,VALID,0,VALID,94.1571,VALID,0,VALID,22.8995,VALID,108,VALID,0,
2009-12-26, 03:35:04,VALID,998.209,VALID,0,VALID,94.1266,VALID,0,VALID,22.8623,VALID,108,VALID,0,
2009-12-26, 03:36:04,VALID,998.223,VALID,0,VALID,94.1419,VALID,0,VALID,22.9013,VALID,108,VALID,0,
2009-12-26, 03:37:04,VALID,998.23,VALID,0,VALID,94.1343,VALID,0.112286,VALID,22.9208,VALID,108,VALID,0,
2009-12-26, 03:38:04,VALID,998.259,VALID,0,VALID,94.1343,VALID,0,VALID,22.9598,VALID,108,VALID,0,
2009-12-26, 03:39:04,VALID,998.249,VALID,0,VALID,94.1266,VALID,0,VALID,22.9793,VALID,108,VALID,0,
2009-12-26, 03:40:04,VALID,998.292,VALID,0,VALID,94.119,VALID,0,VALID,22.9811,VALID,108,VALID,0,
2009-12-26, 03:41:04,VALID,998.338,VALID,0,VALID,94.1495,VALID,0,VALID,22.9581,VALID,108,VALID,0,
2009-12-26, 03:42:04,VALID,998.344,VALID,0,VALID,94.1495,VALID,0.112286,VALID,22.9971,VALID,108,VALID,0,
2009-12-26, 03:43:04,VALID,998.335,VALID,0,VALID,94.1343,VALID,0,VALID,23.0396,VALID,108,VALID,0,
2009-12-26, 03:44:04,VALID,998.339,VALID,0,VALID,94.119,VALID,0,VALID,23.0183,VALID,108,VALID,0,
2009-12-26, 03:45:04,VALID,998.318,VALID,0,VALID,94.0961,VALID,0,VALID,23.0006,VALID,108,VALID,0,
2009-12-26, 03:46:04,VALID,998.331,VALID,0,VALID,94.0808,VALID,0,VALID,23.0006,VALID,108,VALID,0,
2009-12-26, 03:47:04,VALID,998.359,VALID,0,VALID,94.0656,VALID,0,VALID,22.9811,VALID,108,VALID,0,
2009-12-26, 03:48:04,VALID,998.352,VALID,0,VALID,94.0274,VALID,0,VALID,22.8818,VALID,108,VALID,0,
2009-12-26, 03:49:04,VALID,998.37,VALID,0,VALID,94.0274,VALID,0,VALID,22.8427,VALID,108,VALID,0,
2009-12-26, 03:50:04,VALID,998.337,VALID,0,VALID,94.0656,VALID,0,VALID,22.864,VALID,108,VALID,0,
2009-12-26, 03:51:04,VALID,998.327,VALID,0,VALID,94.1037,VALID,0,VALID,22.864,VALID,108,VALID,0,
2009-12-26, 03:52:04,VALID,998.315,VALID,0,VALID,94.1037,VALID,0,VALID,22.8818,VALID,108,VALID,0,
2009-12-26, 03:53:04,VALID,998.351,VALID,0,VALID,94.1114,VALID,0,VALID,22.8818,VALID,108,VALID,0.339453,
2009-12-26, 03:54:04,VALID,998.31,VALID,0,VALID,94.1343,VALID,0,VALID,22.942,VALID,108,VALID,0.355859,
2009-12-26, 03:55:04,VALID,998.319,VALID,0,VALID,94.1419,VALID,0,VALID,22.9811,VALID,108,VALID,0.297656,
2009-12-26, 03:56:04,VALID,998.344,VALID,0,VALID,94.1419,VALID,0,VALID,23.0396,VALID,108,VALID,0.25625,
2009-12-26, 03:57:04,VALID,998.344,VALID,0,VALID,94.1114,VALID,0,VALID,23.0396,VALID,108,VALID,0.141797,
2009-12-26, 03:58:04,VALID,998.294,VALID,0,VALID,94.0732,VALID,0,VALID,23.0201,VALID,112,VALID,0.478125,